Hourly Data Report for October 24, 2004

SHERBROOKE A
QUEBEC

45°26'00.000" N
71°41'00.000" W
241.40 m
7028124
71610
YSC

Download Data

Hourly Data (October 2004)
Hourly Data Report for October 24, 2004
TIME
LST
Temp Definition
°C
Dew Point Definition
°C
Rel Hum Definition
%
Precip. Amount Definition
mm

Wind Dir Definition
10's deg

Wind Spd Definition
km/h
Visibility Definition
km
Stn Press Definition
kPa
Hmdx Definition


Wind Chill Definition


Weather Definition


00:00 -1.8 -3.2 90   9 6 15.0 99.10   -4  
01:00 -1.7 -3.2 89   9 7 15.0 99.06   -4  
02:00 -2.4 -4.4 86   9 4 15.0 99.08   -4  
03:00 -3.1 -4.9 87     0 15.0 99.08      
04:00 -4.1 -5.6 89   10 4 15.0 99.08   -6  
05:00 -2.4 -4.0 89   10 9 15.0 99.08   -6  
06:00 -3.5 -5.3 87   11 6 15.0 99.10   -6  
07:00 -2.4 -4.0 89   9 11 24.1 99.02   -6 Mainly Clear
08:00 0.6 -1.1 88     0 24.1 99.03     Mainly Clear
09:00 4.2 0.2 75     0 24.1 99.02     Mainly Clear
10:00 6.9 0.9 66   11 4 24.1 99.00     Mainly Clear
11:00 8.7 1.3 60   9 7 24.1 98.93     Mainly Clear
12:00 10.8 1.2 51   12 15 24.1 98.84     Mainly Clear
13:00 11.4 1.1 49   14 6 24.1 98.78     Mostly Cloudy
14:00 12.2 1.5 48   3 4 24.1 98.74     Mostly Cloudy
15:00 11.8 1.5 49   31 7 24.1 98.72     Mostly Cloudy
16:00 11.5 1.5 50   26 6 24.1 98.74     Mostly Cloudy
17:00 8.0 0.9 61   19 6 15.0 98.79      
18:00 5.8 0.4 68   11 9 15.0 98.81      
19:00 3.7 0.4 79   12 7 15.0 98.84      
20:00 0.5 -1.8 85   16 6 15.0 98.89      
21:00 -0.2 -2.1 87   10 4 15.0 98.94   -1  
22:00 -0.4 -2.2 88   10 6 15.0 98.95   -2  
23:00 -1.3 -2.3 93     0 15.0 98.99      

Notes on Data Quality.

Legend

  • E = Estimated
  • M = Missing
  • NA = Not Available*
  • [empty] = Indicates an unobserved value
Date modified: